�������l�o���
Date,Time,MP-1(��Sv/h),MP-2(��Sv/h),MP-3(��Sv/h),MP-4(��Sv/h),MP-5(��Sv/h),MP-6(��Sv/h),MP-7(��Sv/h),MP-8(��Sv/h),����,����(m/s),���J
2021/07/14,00:00,0.592,0.880,0.567,1.072,0.760,0.365,0.629,0.591,�k,2.8,��
2021/07/14,00:10,0.592,0.881,0.567,1.071,0.761,0.365,0.629,0.591,�k,2.5,��
2021/07/14,00:20,0.591,0.882,0.567,1.070,0.761,0.366,0.629,0.590,�k,3.7,��
2021/07/14,00:30,0.590,0.879,0.569,1.071,0.762,0.365,0.626,0.591,�k,4.0,�L
2021/07/14,00:40,0.591,0.881,0.569,1.073,0.761,0.366,0.629,0.591,�k,4.1,�L
2021/07/14,00:50,0.590,0.882,0.568,1.070,0.757,0.364,0.630,0.589,�k,3.3,��
2021/07/14,01:00,0.591,0.880,0.569,1.071,0.761,0.365,0.627,0.591,�k,3.5,��
2021/07/14,01:10,0.591,0.879,0.568,1.068,0.759,0.365,0.628,0.590,�k,3.5,��
2021/07/14,01:20,0.591,0.883,0.567,1.071,0.758,0.365,0.626,0.590,�k,2.6,��
2021/07/14,01:30,0.592,0.883,0.568,1.071,0.760,0.364,0.629,0.589,�k,3.9,�L
2021/07/14,01:40,0.590,0.879,0.570,1.071,0.760,0.366,0.627,0.590,�k,3.8,�L
2021/07/14,01:50,0.592,0.881,0.569,1.071,0.761,0.365,0.628,0.591,�k,4.0,�L
2021/07/14,02:00,0.592,0.878,0.568,1.070,0.759,0.364,0.629,0.591,�k,4.3,��
2021/07/14,02:10,0.590,0.878,0.569,1.073,0.761,0.364,0.628,0.590,�k,3.5,�L
2021/07/14,02:20,0.591,0.878,0.566,1.070,0.760,0.365,0.628,0.589,�k,5.1,�L
2021/07/14,02:30,0.589,0.879,0.567,1.071,0.758,0.365,0.630,0.591,�k,5.4,�L
2021/07/14,02:40,0.590,0.877,0.569,1.069,0.758,0.366,0.628,0.590,�k�k��,4.9,�L
2021/07/14,02:50,0.589,0.878,0.567,1.068,0.759,0.364,0.627,0.590,�k,4.5,�L
2021/07/14,03:00,0.589,0.876,0.566,1.068,0.758,0.363,0.627,0.591,�k,3.9,�L
2021/07/14,03:10,0.590,0.876,0.566,1.068,0.758,0.365,0.628,0.591,�k�k��,4.9,�L
2021/07/14,03:20,0.589,0.876,0.567,1.069,0.756,0.365,0.627,0.589,�k�k��,5.4,�L
2021/07/14,03:30,0.590,0.877,0.567,1.069,0.758,0.364,0.627,0.590,�k,5.5,�L
2021/07/14,03:40,0.591,0.874,0.565,1.067,0.756,0.363,0.628,0.588,�k,4.4,��
2021/07/14,03:50,0.589,0.875,0.565,1.069,0.756,0.363,0.626,0.588,�k,5.7,�L
2021/07/14,04:00,0.591,0.876,0.565,1.068,0.757,0.364,0.626,0.587,�k,5.7,�L
2021/07/14,04:10,0.589,0.876,0.563,1.067,0.756,0.364,0.628,0.587,�k,5.9,�L
2021/07/14,04:20,0.589,0.874,0.567,1.069,0.756,0.364,0.627,0.589,�k,4.9,��
2021/07/14,04:30,0.591,0.875,0.565,1.067,0.755,0.364,0.628,0.589,�k,3.9,��
2021/07/14,04:40,0.589,0.875,0.567,1.065,0.757,0.363,0.627,0.591,�k,4.5,��
2021/07/14,04:50,0.589,0.877,0.566,1.069,0.755,0.364,0.627,0.589,�k,4.7,��
2021/07/14,05:00,0.588,0.876,0.567,1.068,0.755,0.363,0.627,0.590,�k,5.1,��
2021/07/14,05:10,0.590,0.877,0.566,1.070,0.756,0.364,0.628,0.590,�k,5.3,��
2021/07/14,05:20,0.589,0.875,0.566,1.067,0.755,0.364,0.627,0.589,�k,5.8,��
2021/07/14,05:30,0.589,0.877,0.566,1.065,0.756,0.364,0.625,0.588,�k,5.1,��
2021/07/14,05:40,0.588,0.876,0.566,1.069,0.754,0.361,0.627,0.589,�k,4.9,��
2021/07/14,05:50,0.590,0.873,0.565,1.068,0.755,0.364,0.628,0.587,�k,4.2,��
2021/07/14,06:00,0.588,0.873,0.565,1.065,0.755,0.364,0.627,0.589,�k,3.5,��
2021/07/14,06:10,0.588,0.875,0.565,1.068,0.756,0.363,0.627,0.589,�k,3.7,�L
2021/07/14,06:20,0.589,0.877,0.567,1.067,0.754,0.363,0.627,0.588,�k,3.8,��
2021/07/14,06:30,0.589,0.875,0.565,1.067,0.754,0.364,0.627,0.588,�k,4.1,��
2021/07/14,06:40,0.589,0.876,0.567,1.068,0.755,0.363,0.628,0.588,�k,3.9,��
2021/07/14,06:50,0.587,0.877,0.565,1.070,0.753,0.363,0.626,0.588,�k�k��,3.2,��
2021/07/14,07:00,0.588,0.874,0.567,1.069,0.756,0.362,0.627,0.588,�k�k��,3.9,��
2021/07/14,07:10,0.590,0.876,0.565,1.067,0.756,0.364,0.625,0.589,�k,3.9,��
2021/07/14,07:20,0.589,0.875,0.566,1.067,0.756,0.364,0.626,0.587,�k,3.8,��
2021/07/14,07:30,0.588,0.875,0.567,1.067,0.756,0.362,0.627,0.589,�k�k��,4.1,��
2021/07/14,07:40,0.590,0.875,0.565,1.069,0.758,0.363,0.627,0.589,�k,4.1,�L
2021/07/14,07:50,0.589,0.877,0.564,1.067,0.757,0.363,0.626,0.588,�k,5.4,��
2021/07/14,08:00,0.589,0.875,0.562,1.070,0.755,0.363,0.627,0.588,�k,5.1,��
2021/07/14,08:10,0.590,0.873,0.566,1.069,0.758,0.364,0.627,0.589,�k,4.0,��
2021/07/14,08:20,0.589,0.874,0.565,1.069,0.757,0.363,0.626,0.588,�k�k��,4.1,��
2021/07/14,08:30,0.590,0.873,0.566,1.070,0.757,0.364,0.628,0.586,�k,4.8,��
2021/07/14,08:40,0.591,0.873,0.565,1.067,0.757,0.363,0.628,0.589,�k�k��,4.2,��
2021/07/14,08:50,0.592,0.874,0.565,1.068,0.757,0.364,0.627,0.586,�k�k��,5.2,��
2021/07/14,09:00,0.590,0.874,0.565,1.067,0.757,0.362,0.626,0.588,�k�k��,5.2,��
2021/07/14,09:10,0.592,0.876,0.564,1.068,0.756,0.364,0.628,0.588,�k�k��,5.3,��
2021/07/14,09:20,0.589,0.877,0.564,1.070,0.757,0.363,0.626,0.588,�k�k��,5.7,��
2021/07/14,09:30,0.592,0.875,0.564,1.069,0.756,0.363,0.628,0.588,�k�k��,5.8,��
2021/07/14,09:40,0.591,0.874,0.564,1.070,0.756,0.363,0.628,0.587,�k�k��,5.2,��
2021/07/14,09:50,0.592,0.875,0.565,1.068,0.757,0.364,0.627,0.588,�k�k��,5.9,��
2021/07/14,10:00,0.593,0.878,0.566,1.069,0.759,0.362,0.628,0.587,�k�k��,6.1,��
2021/07/14,10:10,0.592,0.873,0.565,1.069,0.758,0.364,0.628,0.589,�k�k��,6.5,��
2021/07/14,10:20,0.593,0.876,0.567,1.070,0.758,0.363,0.627,0.586,�k�k��,5.9,��
2021/07/14,10:30,0.592,0.878,0.567,1.069,0.759,0.363,0.627,0.588,�k�k��,6.3,��
2021/07/14,10:40,0.593,0.875,0.566,1.071,0.757,0.364,0.627,0.590,�k,6.0,��
2021/07/14,10:50,0.591,0.874,0.565,1.069,0.759,0.365,0.628,0.589,�k�k��,5.9,��
2021/07/14,11:00,0.593,0.877,0.567,1.067,0.758,0.363,0.628,0.589,�k�k��,5.0,��
2021/07/14,11:10,0.593,0.877,0.563,1.068,0.758,0.364,0.627,0.588,�k�k��,4.5,��
2021/07/14,11:20,0.593,0.876,0.566,1.066,0.759,0.364,0.628,0.588,�k�k��,5.2,��
2021/07/14,11:30,0.593,0.876,0.567,1.066,0.758,0.363,0.629,0.588,�k�k��,5.0,��
2021/07/14,11:40,0.594,0.878,0.566,1.068,0.761,0.364,0.628,0.588,�k�k��,4.4,��
2021/07/14,11:50,0.594,0.881,0.568,1.067,0.759,0.363,0.630,0.589,�k�k��,4.9,��
2021/07/14,12:00,0.594,0.881,0.565,1.070,0.758,0.364,0.629,0.587,�k�k��,4.5,��
2021/07/14,12:10,0.594,0.878,0.567,1.070,0.759,0.363,0.628,0.589,�k�k��,4.9,��
2021/07/14,12:20,0.593,0.880,0.568,1.068,0.760,0.363,0.628,0.587,�k�k��,3.9,��
2021/07/14,12:30,0.593,0.882,0.567,1.069,0.760,0.365,0.629,0.588,�k�k��,4.4,��
2021/07/14,12:40,0.595,0.882,0.567,1.068,0.761,0.364,0.629,0.590,�k�k��,4.9,��
2021/07/14,12:50,0.592,0.879,0.568,1.068,0.762,0.364,0.629,0.587,�k�k��,5.1,��
2021/07/14,13:00,0.594,0.879,0.569,1.069,0.761,0.364,0.628,0.588,�k�k��,4.6,��
2021/07/14,13:10,0.594,0.882,0.567,1.069,0.760,0.364,0.629,0.587,�k�k��,4.5,��
2021/07/14,13:20,0.593,0.879,0.567,1.068,0.760,0.364,0.629,0.588,�k�k��,4.4,��
2021/07/14,13:30,0.593,0.881,0.568,1.069,0.761,0.363,0.629,0.589,�k�k��,4.5,��
2021/07/14,13:40,0.594,0.881,0.567,1.068,0.760,0.366,0.629,0.588,�k�k��,3.8,��
2021/07/14,13:50,0.595,0.881,0.568,1.070,0.761,0.365,0.631,0.589,�k��,3.4,��
2021/07/14,14:00,0.593,0.883,0.568,1.069,0.763,0.365,0.629,0.590,�k�k��,4.0,��
2021/07/14,14:10,0.596,0.882,0.568,1.069,0.761,0.364,0.628,0.588,�k�k��,4.1,��
2021/07/14,14:20,0.596,0.882,0.568,1.070,0.762,0.363,0.630,0.588,�k�k��,4.5,��
2021/07/14,14:30,0.595,0.881,0.567,1.072,0.764,0.364,0.631,0.590,�k�k��,4.6,��
2021/07/14,14:40,0.596,0.882,0.568,1.070,0.762,0.364,0.630,0.589,�k�k��,4.2,��
2021/07/14,14:50,0.596,0.882,0.569,1.072,0.760,0.366,0.630,0.589,�k�k��,4.0,��
2021/07/14,15:00,0.594,0.883,0.568,1.070,0.762,0.364,0.630,0.588,�k�k��,4.0,��
2021/07/14,15:10,0.593,0.883,0.568,1.071,0.761,0.364,0.629,0.589,�k�k��,4.6,��
2021/07/14,15:20,0.591,0.882,0.569,1.071,0.762,0.365,0.625,0.590,�k�k��,4.4,��
2021/07/14,15:30,0.595,0.884,0.568,1.071,0.762,0.365,0.629,0.591,�k�k��,3.9,��
2021/07/14,15:40,0.593,0.883,0.568,1.072,0.762,0.365,0.630,0.589,�k�k��,4.7,��
2021/07/14,15:50,0.594,0.885,0.568,1.072,0.762,0.363,0.630,0.590,�k�k��,4.5,��
2021/07/14,16:00,0.595,0.884,0.567,1.070,0.763,0.364,0.630,0.589,�k�k��,3.8,��
2021/07/14,16:10,0.594,0.884,0.568,1.072,0.761,0.365,0.629,0.588,�k,3.7,��
2021/07/14,16:20,0.594,0.884,0.566,1.073,0.763,0.365,0.630,0.590,�k�k��,3.7,��
2021/07/14,16:30,0.593,0.887,0.568,1.073,0.762,0.366,0.629,0.589,�k�k��,3.5,��
2021/07/14,16:40,0.593,0.884,0.567,1.074,0.763,0.364,0.630,0.589,�k,3.5,��
2021/07/14,16:50,0.595,0.886,0.568,1.074,0.762,0.365,0.629,0.588,�k�k��,3.1,��
2021/07/14,17:00,0.593,0.885,0.569,1.073,0.760,0.365,0.630,0.589,�k�k��,2.3,��
2021/07/14,17:10,0.595,0.886,0.568,1.075,0.762,0.363,0.631,0.589,�k�k��,2.6,��
2021/07/14,17:20,0.594,0.883,0.567,1.075,0.760,0.364,0.630,0.590,�k,3.0,��
2021/07/14,17:30,0.594,0.884,0.569,1.076,0.762,0.365,0.630,0.587,�k�k��,3.0,��
2021/07/14,17:40,0.595,0.885,0.570,1.076,0.764,0.365,0.630,0.589,�k,2.3,��
2021/07/14,17:50,0.593,0.887,0.570,1.077,0.765,0.365,0.631,0.589,�k�k��,2.2,��
2021/07/14,18:00,0.595,0.887,0.571,1.073,0.764,0.364,0.631,0.590,�k�k��,2.3,��
2021/07/14,18:10,0.594,0.887,0.569,1.075,0.762,0.364,0.630,0.590,�k�k��,2.3,��
2021/07/14,18:20,0.592,0.884,0.570,1.074,0.764,0.365,0.629,0.588,�k�k��,2.3,��
2021/07/14,18:30,0.592,0.886,0.569,1.077,0.762,0.365,0.630,0.590,�k�k��,2.8,��
2021/07/14,18:40,0.593,0.886,0.571,1.074,0.764,0.365,0.630,0.589,�k,2.8,��
2021/07/14,18:50,0.594,0.888,0.570,1.073,0.765,0.365,0.632,0.589,�k�k��,2.6,��
2021/07/14,19:00,0.593,0.889,0.571,1.078,0.766,0.365,0.630,0.589,�k�k��,2.6,��
2021/07/14,19:10,0.594,0.887,0.568,1.075,0.765,0.364,0.630,0.591,�k�k��,2.5,��
2021/07/14,19:20,0.594,0.889,0.570,1.076,0.764,0.365,0.631,0.591,�k�k��,2.8,��
2021/07/14,19:30,0.593,0.888,0.570,1.076,0.765,0.365,0.631,0.591,�k�k��,2.8,��
2021/07/14,19:40,0.593,0.887,0.570,1.077,0.764,0.365,0.631,0.591,�k�k��,2.3,��
2021/07/14,19:50,0.594,0.888,0.570,1.076,0.764,0.365,0.631,0.592,�k�k��,2.9,��
2021/07/14,20:00,0.595,0.888,0.571,1.076,0.766,0.365,0.629,0.591,�k�k��,2.6,��
2021/07/14,20:10,0.593,0.888,0.569,1.076,0.766,0.364,0.631,0.592,�k�k��,2.8,��
2021/07/14,20:20,0.594,0.888,0.571,1.078,0.764,0.365,0.630,0.591,�k,3.1,��
2021/07/14,20:30,0.593,0.889,0.570,1.077,0.763,0.364,0.631,0.592,�k�k��,1.9,��
2021/07/14,20:40,0.592,0.888,0.571,1.077,0.765,0.365,0.630,0.591,�k�k��,2.6,��
2021/07/14,20:50,0.592,0.889,0.569,1.074,0.765,0.365,0.630,0.591,�k�k��,2.9,��
2021/07/14,21:00,0.594,0.889,0.572,1.078,0.765,0.365,0.631,0.591,�k�k��,2.3,��
2021/07/14,21:10,0.593,0.886,0.569,1.076,0.767,0.365,0.630,0.593,�k,2.5,��
2021/07/14,21:20,0.595,0.888,0.571,1.076,0.763,0.366,0.629,0.593,�k�k��,2.2,��
2021/07/14,21:30,0.592,0.888,0.571,1.073,0.766,0.365,0.630,0.590,�k�k��,2.5,��
2021/07/14,21:40,0.594,0.887,0.569,1.078,0.764,0.364,0.629,0.591,�k,2.0,��
2021/07/14,21:50,0.596,0.890,0.570,1.074,0.764,0.366,0.632,0.591,�k,1.5,��
2021/07/14,22:00,0.596,0.888,0.569,1.074,0.765,0.366,0.630,0.590,�k,1.7,��
2021/07/14,22:10,0.594,0.890,0.571,1.074,0.763,0.364,0.631,0.592,�k,1.7,��
2021/07/14,22:20,0.595,0.890,0.571,1.074,0.766,0.366,0.631,0.591,�k,1.5,��
2021/07/14,22:30,0.595,0.887,0.571,1.075,0.767,0.365,0.631,0.592,�k�k��,1.9,��
2021/07/14,22:40,0.596,0.888,0.570,1.074,0.765,0.366,0.630,0.592,�k,1.7,��
2021/07/14,22:50,0.596,0.887,0.570,1.075,0.766,0.365,0.632,0.592,�k�k��,2.2,��
2021/07/14,23:00,0.596,0.887,0.570,1.076,0.768,0.365,0.631,0.591,�k,1.9,��
2021/07/14,23:10,0.595,0.888,0.570,1.077,0.766,0.365,0.630,0.590,�k,1.7,��
2021/07/14,23:20,0.596,0.888,0.571,1.077,0.767,0.365,0.632,0.591,�k,1.5,��
2021/07/14,23:30,0.594,0.887,0.572,1.077,0.767,0.365,0.631,0.591,�k,1.1,��
2021/07/14,23:40,0.596,0.889,0.572,1.076,0.765,0.366,0.631,0.592,�k�k��,1.2,��
2021/07/14,23:50,0.596,0.887,0.571,1.077,0.765,0.365,0.632,0.591,�k�k��,2.3,��
